Location: Ajisawe
(8.4333°N, 4.3833°E)
Time: 07:14:12
(UTC+00:00)

S-56A Canister/Altair - Pass Details

Date: 27 April 2021
Orbit: 631 x 2501 km, 38.9° (Epoch: 13 May)

Event Time Altitude Azimuth Distance (km) Brightness Sun altitude
Rises 19:23:59 0° 255° (WSW) 6,135 13.0 -22.6°
Reaches altitude 10° 19:28:50 10° 264° (W) 5,011 12.5 -23.7°
Maximum altitude 19:40:43 33° 322° (NW) 2,989 10.9 -26.5°
Drops below altitude 10° 19:49:49 10° 23° (NNE) 3,791 11.0 -28.6°
Sets 19:52:58 0° 33° (NNE) 4,508 11.4 -29.3°
